2018-014K (43189 NORAD) Tracking and Keplerian Element Data

This shows tracking and keplerian element data for the satellite.

Feedback or suggestion? Click here.




ElementValue
Catalog43189
Name2018-014K
Epoch Orbit4094
Epoch Day315.79204237
Epoch Year2018
RAAN222.2818
Inclination97.7162
Eccentricity0.0011763
Argument of Perigee24.3582
Mean Anonmoly335.8193
Mean Motion14.96531859
Decay Rate-2.32E-06
L11 43189U 18014K 18315.79204237 -.00000232 00000-0 -15292-4 0 9993
L22 43189 97.7162 222.2818 0011763 24.3582 335.8193 14.96531859 40946

Live tracking and technical data element details for 2018-014K (NORAD 43189). 2018-014K can be tracked NOW for your location showing map with azimuth and elevation plus other details from your city location.

Track the satellite on the map from your city or location and see movement details for azimuth, elevation, latitude, longitude, range, height, and movement on the map or in text.







IsCatalogInMostPopularTable: catalog: 43189, numindb: 111
Update: records affected: 1



GetName: 43189 2018-014K

Hit Count: updated at: Mon, 12 Nov 2018 18:46:15 GMT